sat.trackr.live / text

‹ back to catalog

STARLINK-38058

NORAD 69757 · 2026-150U

PAYLOAD ACTIVE UNKNOWN

§ Identity

Operator
Country
US
Launch date
2026-07-02
Launch site
AFWTR
Launch vehicle
Mass (kg)
RCS (m²)

Purposes: comms

External: N2YO · Heavens-Above · Gunter

§ Orbital elements

Epoch: 2026-09-19T06:28:55.820064Z

Period
93.91 min
Inclination
97.2849°
Eccentricity
0.0001496
Mean motion
15.33443141 rev/d
Perigee alt
464.5 km
Apogee alt
466.6 km
Semi-major
6,843.7 km
B*
4.1517e-4
RAAN
101.1590°
Arg perigee
87.2237°
Mean anomaly
272.9177°
Rev number
1,354

§ Raw data

STARLINK-380581 69757U 26150U   26262.27009051  .00013351  00000+0  41517-3 0  99932 69757  97.2849 101.1590 0001496  87.2237 272.9177 15.33443141 13548

JSON: /api/v1/satellites/69757 · /tle

For live sub-satellite position, see the globe view (requires WebGL).

§ Visibility from observer

Set your observer location to see the next 7 days of passes ≥ 10°. The values pass through the URL so the page stays shareable.

No JS? Fill the form by hand. The geolocation button needs JavaScript.